Weather History for KPEO - September, 2012

Change the Weather History Date:

Sunday, September 30, 2012

  Actual Average (KITH) Record (KITH)
Temperature  
Mean Temperature 50 °F -  
Max Temperature 55 °F 65 °F 84 °F (1927)
Min Temperature 45 °F 42 °F 24 °F (1991)
Degree Days  
Heating Degree Days 16    
Moisture  
Dew Point 47 °F    
Average Humidity 90    
Maximum Humidity 100    
Minimum Humidity 82    
Precipitation  
Precipitation 0.21 in - - ()
Sea Level Pressure  
Sea Level Pressure 29.87 in    
Wind  
Wind Speed 3 mph (WSW)    
Max Wind Speed 9 mph    
Max Gust Speed -    
Visibility 7 miles    
Events Fog , Rain    
Averages and records for this station are not official NWS values.
T = Trace of Precipitation, MM = Missing Value Source: NWS Daily Summary

Daily Weather History Graph

Daily Weather History Graph

Search for Another Location

Airport or City:

Trip Planner

Search our weather history database for the weather conditions in past years. The results will help you decide how hot, cold, wet, or windy it might be!

Date:

Astronomy

Sep. 30, 2012 Rise Set
Actual Time 7:04 AM EDT 6:50 PM EDT
Civil Twilight 6:36 AM EDT 7:18 PM EDT
Nautical Twilight 6:03 AM EDT 7:51 PM EDT
Astronomical Twilight 5:30 AM EDT 8:24 PM EDT
Moon 6:50 PM EDT (9/30) 7:35 AM EDT (9/30)
Length of Visible Light 12h 41m
Length of Day
11h 45m
Full, 100% of the Moon is Illuminated
Sep 30
Full
Oct 8
Last Quarter
Oct 15
New
Oct 21
First Quarter
Oct 29
Full

Hourly Weather History & Observations

Time (EDT) Temp. Windchill Dew Point Humidity Pressure Visibility Wind Dir Wind Speed Gust Speed Precip Events Conditions
12:53 AM 48.0 °F - 45.0 °F 89% 29.93 in 10.0 mi Calm Calm - N/A   Clear
1:53 AM 46.0 °F - 44.1 °F 93% 29.93 in 10.0 mi Calm Calm - N/A   Clear
2:53 AM 45.0 °F - 43.0 °F 93% 29.92 in 4.0 mi Calm Calm - N/A   Partly Cloudy
3:00 AM 46.4 °F 44.3 °F 44.6 °F 93% 29.91 in 2.0 mi SW 4.6 mph - N/A   Scattered Clouds
3:02 AM 46.4 °F 44.3 °F 44.6 °F 93% 29.91 in 1.2 mi SW 4.6 mph - N/A   Mostly Cloudy
3:10 AM 46.4 °F 44.3 °F 44.6 °F 93% 29.90 in 0.2 mi SSW 4.6 mph - N/A Fog Fog
3:22 AM 46.4 °F 44.3 °F 44.6 °F 93% 29.91 in 2.5 mi SSW 4.6 mph - N/A   Overcast
3:27 AM 46.4 °F 44.3 °F 44.6 °F 93% 29.90 in 8.0 mi SSW 4.6 mph - N/A   Overcast
3:53 AM 46.0 °F - 45.0 °F 96% 29.91 in 10.0 mi Calm Calm - N/A   Overcast
4:53 AM 46.0 °F 43.9 °F 44.1 °F 93% 29.91 in 10.0 mi SSW 4.6 mph - N/A   Partly Cloudy
5:53 AM 46.0 °F 44.8 °F 44.1 °F 93% 29.91 in 8.0 mi SSW 3.5 mph - N/A   Partly Cloudy
6:28 AM 46.4 °F 45.2 °F 44.6 °F 93% 29.90 in 10.0 mi SW 3.5 mph - N/A   Mostly Cloudy
6:50 AM 46.4 °F - 46.4 °F 100% 29.90 in 10.0 mi Calm Calm - N/A   Overcast
6:53 AM 46.9 °F - 46.0 °F 97% 29.91 in 10.0 mi SW 3.5 mph - N/A   Overcast
7:44 AM 48.2 °F - 46.4 °F 93% 29.90 in 10.0 mi Calm Calm - N/A   Overcast
7:53 AM 48.0 °F - 46.0 °F 93% 29.91 in 10.0 mi Calm Calm - N/A   Overcast
8:05 AM 48.2 °F - 46.4 °F 93% 29.90 in 10.0 mi WSW 3.5 mph - N/A   Overcast
8:31 AM 48.2 °F - 46.4 °F 93% 29.90 in 10.0 mi West 3.5 mph - N/A   Overcast
8:53 AM 50.0 °F - 46.0 °F 86% 29.91 in 10.0 mi West 3.5 mph - N/A   Overcast
9:31 AM 50.0 °F - 46.4 °F 87% 29.90 in 10.0 mi Calm Calm - N/A   Overcast
10:37 AM 51.8 °F - 46.4 °F 82% 29.89 in 10.0 mi West 4.6 mph - 0.00 in   Overcast
10:53 AM 52.0 °F - 48.0 °F 86% 29.90 in 10.0 mi Variable 6.9 mph - 0.00 in   Overcast
11:53 AM 52.0 °F - 48.9 °F 89% 29.88 in 10.0 mi WSW 3.5 mph - 0.03 in Rain Light Rain
12:53 PM 52.0 °F - 48.9 °F 89% 29.87 in 4.0 mi Variable 3.5 mph - 0.03 in Rain Rain
1:31 PM 51.8 °F - 48.2 °F 88% 29.85 in 2.5 mi SW 5.8 mph - 0.06 in Rain Rain
1:41 PM 53.6 °F - 48.2 °F 82% 29.85 in 3.0 mi WSW 5.8 mph - 0.07 in Rain Rain
1:53 PM 52.0 °F - 48.9 °F 89% 29.86 in 4.0 mi West 5.8 mph - 0.07 in Rain Light Rain
2:01 PM 51.8 °F - 48.2 °F 88% 29.85 in 4.0 mi West 9.2 mph - 0.01 in Rain Light Rain
2:13 PM 51.8 °F - 48.2 °F 88% 29.85 in 2.5 mi Variable 4.6 mph - 0.02 in Rain Light Rain
2:17 PM 51.8 °F - 50.0 °F 94% 29.85 in 2.0 mi West 4.6 mph - 0.02 in Rain Light Rain
2:41 PM 51.8 °F - 50.0 °F 94% 29.84 in 3.0 mi West 4.6 mph - 0.04 in Rain Light Rain
2:53 PM 53.1 °F - 50.0 °F 89% 29.85 in 4.0 mi NW 6.9 mph - 0.05 in Rain Light Rain
2:57 PM 51.8 °F - 50.0 °F 94% 29.84 in 2.5 mi NW 4.6 mph - 0.02 in Rain Heavy Rain
2:59 PM 51.8 °F - 50.0 °F 94% 29.84 in 2.0 mi WNW 4.6 mph - 0.02 in Rain Heavy Rain
3:27 PM 51.8 °F - 50.0 °F 94% 29.84 in 2.0 mi WNW 4.6 mph - 0.08 in Rain Heavy Rain
3:32 PM 51.8 °F - 50.0 °F 94% 29.84 in 1.8 mi Variable 4.6 mph - 0.10 in Rain Heavy Rain
3:41 PM 51.8 °F - 48.2 °F 88% 29.84 in 2.5 mi Variable 3.5 mph - 0.12 in Rain Rain
4:02 PM 51.8 °F - 50.0 °F 94% 29.84 in 1.8 mi Calm Calm - 0.02 in Rain Rain
4:06 PM 51.8 °F - 50.0 °F 94% 29.84 in 2.0 mi NNW 3.5 mph - 0.03 in Rain Rain
4:09 PM 51.8 °F - 50.0 °F 94% 29.84 in 3.0 mi Calm Calm - 0.03 in Rain Light Rain
4:21 PM 53.6 °F - 48.2 °F 82% 29.84 in 10.0 mi WNW 5.8 mph - 0.03 in   Overcast
4:53 PM 53.1 °F - 48.9 °F 86% 29.85 in 10.0 mi Variable 5.8 mph - 0.03 in   Overcast
5:53 PM 54.0 °F - 48.9 °F 83% 29.85 in 10.0 mi NW 5.8 mph - N/A   Overcast
6:11 PM 53.6 °F - 48.2 °F 82% 29.84 in 10.0 mi NW 6.9 mph - 0.00 in   Overcast
6:53 PM 52.0 °F - 48.0 °F 86% 29.85 in 10.0 mi NW 3.5 mph - 0.00 in   Overcast
7:53 PM 52.0 °F - 48.9 °F 89% 29.85 in 10.0 mi West 4.6 mph - N/A   Overcast
8:03 PM 51.8 °F - 48.2 °F 88% 29.85 in 10.0 mi WSW 5.8 mph - N/A   Overcast
8:53 PM 52.0 °F - 48.0 °F 86% 29.85 in 10.0 mi SW 4.6 mph - N/A   Overcast
9:53 PM 52.0 °F - 46.9 °F 83% 29.85 in 10.0 mi SW 5.8 mph - N/A   Overcast
10:16 PM 51.8 °F - 46.4 °F 82% 29.85 in 10.0 mi SW 6.9 mph - N/A   Overcast
10:53 PM 51.1 °F - 46.9 °F 86% 29.85 in 10.0 mi SW 4.6 mph - N/A   Mostly Cloudy
11:53 PM 51.1 °F - 46.9 °F 86% 29.84 in 10.0 mi SSW 6.9 mph - N/A   Overcast